Flag for U.S.A. Weather past 2 weeks in Youngstown, Ohio, U.S.A.

Now
50 °F

Light rain. Fog.


Feels Like: 47 °F
Forecast: 46 / 53 °F
Wind: 8 mph from Southwest

Location: Youngstown-Warren Regional Airport

Current Time: Oct 21, 2014 at 2:27:30 AM

Latest Report: Oct 21, 2014 at 1:51 AM


Visibility: 2 mi

Pressure: 29.83 "Hg

Humidity: 96%

Dew point: 49 °F

Location of YoungstownLocation

Historic Weather in Youngstown — Graph

°F

Youngstown temperature yesterday

Maximum temperature yesterday: 55 °F (at 4:51 PM)
Minimum temperature yesterday: 43 °F (at 12:51 AM)
Average temperature yesterday: 49 °F

Past Weeks' High & Low Weather Summary

 TemperatureHumidityPressure
High79 °F (Oct 14, 3:51 PM)100% (Oct 10, 5:51 AM)30.24 "Hg (Oct 10, 5:51 AM)
Low31 °F (Oct 12, 5:51 AM)42% (Oct 14, 4:51 PM)29.57 "Hg (Oct 17, 2:51 PM)
Average53 °F78%29.92 "Hg
* Reported Oct 6 12:51 AM — Oct 21 12:51 AM, Youngstown, Weather by CustomWeather, © 2014

Note: Actual official high and low records may vary slightly from our data, if they occured in-between our weather recording intervals... More about our weather records

Advertising

Youngstown weather history for previous 24 hours

 ConditionsComfort  
Time TempWeatherWind HumidityBarometerVisibility
12:51 AM
Oct 21
50 °FLight rain. Fog.7 mph93%29.84 "Hg6 mi
11:51 PM
Oct 20
50 °FLight rain. Fog.8 mph93%29.85 "Hg3 mi
10:51 PM50 °FLight rain. Fog.6 mph93%29.86 "Hg4 mi
9:51 PM50 °FLight rain. Mostly cloudy.6 mph89%29.87 "Hg8 mi
8:51 PM50 °FLight rain. Fog.6 mph89%29.87 "Hg5 mi
7:51 PM51 °FLight rain. Mostly cloudy.8 mph83%29.87 "Hg10 mi
6:51 PM52 °FLight rain. Overcast.7 mph77%29.86 "Hg10 mi
5:51 PM54 °FLight rain. Mostly cloudy.8 mph67%29.84 "Hg10 mi
4:51 PM55 °FLight rain. Mostly cloudy.9 mph64%29.85 "Hg10 mi
3:51 PM54 °FLight rain. Mostly cloudy.9 mph67%29.86 "Hg10 mi
2:51 PM53 °FLight rain. Overcast.10 mph69%29.87 "Hg10 mi
1:51 PM54 °FMore clouds than sun.9 mph72%29.89 "Hg10 mi
12:51 PM54 °FPartly sunny.9 mph67%29.91 "Hg10 mi
11:51 AM52 °FOvercast.8 mph69%29.93 "Hg10 mi
10:51 AM50 °FMostly cloudy.13 mph68%29.95 "Hg10 mi
9:51 AM47 °FMostly cloudy.10 mph74%29.97 "Hg10 mi
8:51 AM46 °FOvercast.9 mph73%29.98 "Hg10 mi
7:51 AM45 °FOvercast.9 mph76%29.98 "Hg10 mi
6:51 AM45 °FMostly cloudy.7 mph74%29.98 "Hg10 mi
5:51 AM45 °FOvercast.7 mph74%29.99 "Hg10 mi
4:51 AM44 °FOvercast.5 mph73%30.01 "Hg10 mi
3:51 AM44 °FOvercast.5 mph73%30.03 "Hg10 mi
2:51 AM44 °FOvercast.3 mph73%30.03 "Hg10 mi
Weather by CustomWeather, © 2014

See weather overviewHow to use our weather pages